EN

Hourly Weather Abadiania

Today, 13 June, Sunday

Time Temperature Precipitation Wind Pressure Humidity
00:00 +18°C° 0 mm 1 mps 677 mmHg 70%
01:00 +18°C° 0 mm 1 mps 677 mmHg 71%
02:00 +18°C° 0 mm 1 mps 677 mmHg 71%
03:00 +18°C° 0 mm 1 mps 676 mmHg 72%
04:00 +16°C° 0 mm 1 mps 676 mmHg 73%
05:00 +16°C° 0 mm 1 mps 676 mmHg 74%
06:00 +16°C° 0 mm 1 mps 676 mmHg 76%
07:00 +18°C° 0 mm 2 mps 677 mmHg 68%
08:00 +20°C° 0 mm 2 mps 678 mmHg 60%
09:00 +22°C° 0 mm 3 mps 679 mmHg 53%
10:00 +25°C° 0 mm 2 mps 679 mmHg 48%
11:00 +27°C° 0 mm 2 mps 679 mmHg 43%
12:00 +29°C° 0 mm 2 mps 679 mmHg 38%
13:00 +30°C° 0 mm 2 mps 679 mmHg 36%
14:00 +30°C° 0 mm 1 mps 678 mmHg 34%
15:00 +31°C° 0 mm 1 mps 677 mmHg 32%
16:00 +29°C° 0 mm 1 mps 677 mmHg 37%
17:00 +27°C° 0 mm 1 mps 677 mmHg 42%
18:00 +25°C° 0 mm 1 mps 677 mmHg 47%
19:00 +25°C° 0 mm 1 mps 677 mmHg 49%
20:00 +24°C° 0 mm 1 mps 678 mmHg 51%
21:00 +24°C° 0 mm 1 mps 678 mmHg 53%
22:00 +24°C° 0 mm 1 mps 678 mmHg 55%
23:00 +23°C° 0 mm 1 mps 678 mmHg 58%

Tomorrow, 14 June, Monday

Time Temperature Precipitation Wind Pressure Humidity
00:00 +23°C° 0 mm 1 mps 678 mmHg 60%
01:00 +22°C° 0 mm 1 mps 677 mmHg 62%
02:00 +22°C° 0 mm 1 mps 677 mmHg 64%
03:00 +22°C° 0 mm 1 mps 677 mmHg 66%
04:00 +21°C° 0 mm 1 mps 677 mmHg 67%
05:00 +19°C° 0 mm 2 mps 677 mmHg 69%
06:00 +19°C° 0 mm 2 mps 677 mmHg 71%
07:00 +20°C° 0 mm 2 mps 678 mmHg 65%
08:00 +21°C° 0 mm 3 mps 679 mmHg 60%
09:00 +24°C° 0 mm 3 mps 680 mmHg 55%
10:00 +26°C° 0 mm 3 mps 680 mmHg 50%
11:00 +28°C° 0 mm 3 mps 680 mmHg 45%
12:00 +29°C° 0 mm 3 mps 680 mmHg 39%
13:00 +29°C° 0 mm 2 mps 679 mmHg 42%
14:00 +28°C° 0 mm 2 mps 678 mmHg 44%
15:00 +27°C° 0 mm 1 mps 678 mmHg 47%
16:00 +26°C° 0.3 mm 2 mps 677 mmHg 54%
17:00 +24°C° 0.3 mm 2 mps 677 mmHg 61%
18:00 +21°C° 0.3 mm 2 mps 677 mmHg 68%
19:00 +22°C° 0.4 mm 1 mps 677 mmHg 73%
20:00 +21°C° 0.4 mm 1 mps 678 mmHg 78%
21:00 +18°C° 0.4 mm 0 mps 678 mmHg 83%
22:00 +20°C° 0.4 mm 1 mps 678 mmHg 85%
23:00 +19°C° 0.4 mm 1 mps 678 mmHg 88%

Day after tomorrow, 15 June, Tuesday

Time Temperature Precipitation Wind Pressure Humidity
00:00 +19°C° 0.4 mm 1 mps 678 mmHg 90%
01:00 +18°C° 0.3 mm 1 mps 678 mmHg 91%
02:00 +18°C° 0.3 mm 1 mps 677 mmHg 93%
03:00 +18°C° 0.3 mm 1 mps 677 mmHg 94%
04:00 +18°C° 0.5 mm 1 mps 677 mmHg 94%
05:00 +18°C° 0.5 mm 1 mps 677 mmHg 94%
06:00 +18°C° 0.5 mm 1 mps 677 mmHg 94%
07:00 +19°C° 0.2 mm 1 mps 678 mmHg 88%
08:00 +21°C° 0.2 mm 1 mps 679 mmHg 81%
09:00 +22°C° 0.2 mm 1 mps 679 mmHg 75%
10:00 +24°C° 0 mm 1 mps 679 mmHg 65%
11:00 +26°C° 0 mm 1 mps 680 mmHg 55%
12:00 +26°C° 0 mm 0 mps 680 mmHg 45%
13:00 +28°C° 0.1 mm 1 mps 679 mmHg 46%
14:00 +27°C° 0.1 mm 1 mps 678 mmHg 47%
15:00 +27°C° 0.1 mm 2 mps 677 mmHg 48%
16:00 +25°C° 0.6 mm 2 mps 677 mmHg 59%
17:00 +22°C° 0.6 mm 1 mps 677 mmHg 70%
18:00 +20°C° 0.6 mm 1 mps 677 mmHg 82%
19:00 +20°C° 0.1 mm 1 mps 677 mmHg 81%
20:00 +20°C° 0.1 mm 1 mps 677 mmHg 80%
21:00 +18°C° 0.1 mm 0 mps 677 mmHg 78%
22:00 +17°C° 0 mm 0 mps 677 mmHg 79%
23:00 +17°C° 0 mm 0 mps 677 mmHg 79%

16 June, Wednesday

Time Temperature Precipitation Wind Pressure Humidity
00:00 +17°C° 0 mm 0 mps 677 mmHg 80%
01:00 +17°C° 0 mm 0 mps 677 mmHg 80%
02:00 +17°C° 0 mm 0 mps 676 mmHg 79%
03:00 +16°C° 0 mm 0 mps 676 mmHg 79%
04:00 +16°C° 0 mm 0 mps 676 mmHg 80%
05:00 +16°C° 0 mm 0 mps 676 mmHg 81%
06:00 +18°C° 0 mm 1 mps 677 mmHg 82%
07:00 +19°C° 0 mm 1 mps 677 mmHg 75%
08:00 +21°C° 0 mm 1 mps 678 mmHg 68%
09:00 +23°C° 0 mm 1 mps 679 mmHg 61%
10:00 +25°C° 0 mm 1 mps 679 mmHg 52%
11:00 +27°C° 0 mm 1 mps 679 mmHg 44%
12:00 +29°C° 0 mm 1 mps 679 mmHg 35%
13:00 +30°C° 0 mm 1 mps 678 mmHg 32%
14:00 +30°C° 0 mm 2 mps 678 mmHg 29%
15:00 +30°C° 0 mm 2 mps 677 mmHg 26%
16:00 +28°C° 0 mm 1 mps 677 mmHg 31%
17:00 +26°C° 0 mm 1 mps 677 mmHg 36%
18:00 +23°C° 0 mm 1 mps 676 mmHg 41%
19:00 +22°C° 0 mm 1 mps 677 mmHg 43%
20:00 +21°C° 0 mm 1 mps 677 mmHg 45%
21:00 +20°C° 0 mm 1 mps 677 mmHg 47%
22:00 +20°C° 0 mm 1 mps 677 mmHg 48%
23:00 +19°C° 0 mm 1 mps 677 mmHg 48%

17 June, Thursday

Time Temperature Precipitation Wind Pressure Humidity
00:00 +19°C° 0 mm 1 mps 677 mmHg 49%
01:00 +19°C° 0 mm 1 mps 677 mmHg 50%
02:00 +18°C° 0 mm 1 mps 676 mmHg 51%
03:00 +18°C° 0 mm 1 mps 676 mmHg 52%
04:00 +18°C° 0 mm 1 mps 676 mmHg 53%
05:00 +16°C° 0 mm 1 mps 676 mmHg 53%
06:00 +16°C° 0 mm 1 mps 676 mmHg 54%
07:00 +19°C° 0 mm 1 mps 677 mmHg 49%
08:00 +21°C° 0 mm 1 mps 678 mmHg 45%
09:00 +23°C° 0 mm 2 mps 679 mmHg 40%
10:00 +26°C° 0 mm 2 mps 679 mmHg 36%
11:00 +28°C° 0 mm 1 mps 679 mmHg 31%
12:00 +30°C° 0 mm 1 mps 680 mmHg 27%
13:00 +30°C° 0 mm 1 mps 679 mmHg 26%
14:00 +30°C° 0 mm 1 mps 678 mmHg 25%
15:00 +31°C° 0 mm 1 mps 678 mmHg 24%
16:00 +28°C° 0 mm 1 mps 677 mmHg 30%
17:00 +26°C° 0 mm 1 mps 677 mmHg 36%
18:00 +24°C° 0 mm 2 mps 677 mmHg 41%
19:00 +23°C° 0 mm 1 mps 677 mmHg 43%
20:00 +22°C° 0 mm 1 mps 677 mmHg 44%
21:00 +21°C° 0 mm 1 mps 677 mmHg 45%
22:00 +21°C° 0 mm 1 mps 677 mmHg 47%
23:00 +20°C° 0 mm 1 mps 677 mmHg 48%

18 June, Friday

Time Temperature Precipitation Wind Pressure Humidity
00:00 +20°C° 0 mm 1 mps 677 mmHg 50%
01:00 +19°C° 0 mm 1 mps 677 mmHg 51%
02:00 +19°C° 0 mm 1 mps 677 mmHg 53%
03:00 +19°C° 0 mm 1 mps 677 mmHg 54%
04:00 +18°C° 0 mm 1 mps 677 mmHg 55%
05:00 +18°C° 0 mm 1 mps 677 mmHg 56%
06:00 +18°C° 0 mm 1 mps 677 mmHg 57%
07:00 +20°C° 0 mm 1 mps 678 mmHg 53%
08:00 +21°C° 0 mm 2 mps 679 mmHg 49%
09:00 +24°C° 0 mm 3 mps 680 mmHg 44%
10:00 +26°C° 0 mm 3 mps 680 mmHg 40%
11:00 +28°C° 0 mm 3 mps 680 mmHg 36%
12:00 +30°C° 0 mm 3 mps 680 mmHg 32%
13:00 +31°C° 0 mm 2 mps 679 mmHg 30%
14:00 +31°C° 0 mm 2 mps 679 mmHg 28%
15:00 +31°C° 0 mm 2 mps 678 mmHg 27%
16:00 +29°C° 0 mm 1 mps 678 mmHg 31%
17:00 +27°C° 0 mm 1 mps 678 mmHg 35%
18:00 +23°C° 0 mm 0 mps 677 mmHg 40%
19:00 +23°C° 0 mm 0 mps 677 mmHg 42%
20:00 +24°C° 0 mm 1 mps 678 mmHg 44%
21:00 +23°C° 0 mm 1 mps 678 mmHg 46%
22:00 +23°C° 0 mm 1 mps 678 mmHg 47%
23:00 +23°C° 0 mm 1 mps 678 mmHg 49%
Show more